User: anonymous   Login
Location: Unspecified
(0.0000°N, 0.0000°E)
Time: 00:11:45
(UTC+00:00)
Language:

NATO 4B - Orbit

View from above orbital plane
View from above orbital plane
View from above satellite
View from above satellite

Ground track
Ground track

The orbit data is extracted from the following two-line orbital elements,

1 22921U 93076A   18112.23057293 -.00000016 +00000-0 +00000-0 0  9993
2 22921 012.2685 019.8834 0006012 313.9485 216.6583 00.98515199089271
Epoch (UTC): 22 April 2018 05:32:01
Eccentricity: 0.0006012
inclination: 12.2685°
perigee height: 36260 km
apogee height: 36311 km
right ascension of ascending node: 19.8834°
argument of perigee: 313.9485°
revolutions per day: 0.98515199
mean anomaly at epoch: 216.6583°
orbit number at epoch: 8927

The dashed part of the orbit path shows where the satellite is in the earth's shadow,  

DLR